Погода в Херсоне

Хотите узнать прогноз погоды в Херсоне? Тогда Вам сюда: Погода в Херсоне

Поиск расширенной информации на нашем сайте:

Полезная информация:

Новости сайта



14.11.2019
Обновлён Долгосрочный прогноз погоды по России и другим странам хСССР на ноябрь-декабрь 2019 года.
Опубликованы прогностические карты: Предварительный прогноз на декабрь 2019 года, Предварительный прогноз на январь 2020 года, Предварительная схема синоптических процессов на декабрь 2019 г..

11.11.2019
Обновлены Долгосрочный прогноз погоды по России и другим странам хСССР на ноябрь-декабрь 2019 года и Предварительный прогноз на зиму 2019/2020 годов

04.11.2019
Опубликован Долгосрочный прогноз погоды по России и другим странам хСССР на ноябрь 2019 года
Сравнение прогнозируемой аномалии приземной температуры воздуха на ноябрь 2019 года по разным моделям
Предварительный прогноз на зиму 2019/2020 года




Погода в Херсоне - сегодня

Время (UTC), дата Ветер
(°,м/с) 
Видим.   Явления Облачность Т
(°С)
Тd
(°С)
f(%) Тe
(°С)
Pmin
(гПа)
dP
(гПа)
Po
(мм)
O2
(г/м3)
Тmin Tmax R s Состояние
почвы
00 20.11.19 060 (СВ) 4000 м  дымка  10/6 600 м средняя 
[Sc|Ac und]
+5 +4.3 95 +5  1029.3  -0.2  767  303           
03 20.11.19 050 (СВ) 2000 м  дымка  10/8 1000 м средняя 
[Sc|Ac und]
+4.9 +4.4 97 +5  1029.3  767  303           
06 20.11.19 070 (В) 1000 м  дымка  10/10 600 м 
[Sc]
+4.8 +4.6 99 +4  1029.5  0.2  767  303  +4.7         
09 20.11.19 050 (СВ) 2000 м  дымка  10/10 600 м 
[Sc]
+5.1 +3.6 90 +3    -0.1             
12 20.11.19 060 (СВ) 4000 м  дымка  10/10 600 м 
[Sc]
+5.6 +3.2 85 +4  1028.9  -0.4             
15 20.11.19 040 (СВ) 4000 м  дымка  10/10 600 м 
[Sc]
+5 +2.8 86 +3  1029.4  0.4  767  303           
18 20.11.19 060 (СВ) 4000 м  дымка  10/10 600 м 
[Sc]
+4.6 +3.1 90 +2  1029.7  0.3  767  304    +5.9       
21 20.11.19 050 (СВ) 4000 м  дымка  10/10 600 м 
[Sc]
+4.1 +1.8 85 +2  1030  0.3  767  304           
00 21.11.19 070 (В) 4000 м  дымка  10/10 600 м 
[Sc]
+4.1 +1.5 83 +1  1030.7  0.7  768  305           
03 21.11.19 070 (В) 10 км    10/10 600 м 
[Sc]
+3.3 +0 79 1031.4  0.7  768  306        497   
06 21.11.19 070 (В) 10 км    10/10 600 м 
[Cu Sc]
+1.9 -1.2 80 -2  1032.8  1.3  769  308  +1.6         
09 21.11.19 070 (В) 20000 м    10/10 600 м 
[Sc]
+1.1 -3.5 71 -3  1033.3  0.5  770  309           
12 21.11.19 070 (В) 20000 м    10/3 600 м верхняя 
[Cu hum|Ci fib]
+2 -5.4 58 -1  1033  -0.3  770  308           
15 21.11.19 070 (В) 10 км    10/3 600 м кучево-дожд., верхняя 
[Cb calv|Ci fib]
-0.8 -6.7 64 -5  1033.4  0.4  770  312           
18 21.11.19 060 (СВ) 10 км    10/10 600 м 
[Sc]
-1.5 -7.6 63 -5  1034.3  0.8  770  313           
21 21.11.19 060 (СВ) 10 км    ясно 
-4.6 -10.8 62 -9  1034.9  0.6  771  317           
00 22.11.19 050 (СВ) 10 км    10/10 600 м 
[Sc]
-5.8 -11.6 64 -10  1034.5  -0.5  771  318           
03 22.11.19 050 (СВ) 10 км    10/10 600 м 
[Sc]
-5.4 -10.6 67 -11  1033.1  -1.4  770  317           
06 22.11.19 050 (СВ) 10 км    10/10 600 м 
[Sc]
-5.2 -9.8 70 -10  1033.7  0.6  770  317  -5.8  +0.2       
09 22.11.19 050 (СВ) 10 км    10/10 600 м 
[Sc]
-5.3 -9.5 72 -11  1032.2  -1.4  769  317           
12 22.11.19 050 (СВ) 10 км    10/8 1000 м средняя 
[Sc|Ac As]
-1.9 -6.2 72 -7  1031.2  -0.9  768  312           
15 22.11.19 060 (СВ) 10 км    10/10 1000 м 
[Sc]
-0.9 -6.3 67 -5  1031.6  0.4  769  311        <0.5   
18 22.11.19 070 (В) 10 км    10/10 1000 м 
[Sc]
-1.1 -6.2 68 -6  1031.1  -0.5  768  311           
21 22.11.19 060 (СВ) 10 км    8/6 1000 м средняя 
[Sc|Ac und]
-1.5 -6.8 67 -6  1030.8  -0.3  768  312           
00 23.11.19 060 (СВ) 10 км    9/5 1000 м средняя 
[Sc|Ac und]
-3.1 -7.8 70 -8  1030.6  -0.3  768  314           
Время (UTC), дата Ветер
(°,м/с) 
Видим.   Явления Облачность Т
(°С)
Тd
(°С)
f(%) Тe
(°С)
Pmin
(гПа)
dP
(гПа)
Po
(мм)
O2
(г/м3)
Тmin Tmax R s Состояние
почвы

Для получения пояснительной информации подведите курсор к названию столбца.

ПОГОДА в Херсоне - архив

Всё, что Вы хотите узнать о погоде в Херсоне - удобно и подробно!

Выберите нужную дату (начиная с 1 января 2019* года) и нажмите кнопку "Найти".
Будут отображены архивные сводки погоды по пункту Херсон, начиная с указанной даты.


Отображать данные в формате CSV (для использования в таблицах Excel)


Внимание! Наш архив погоды предназначен исключительно для личного некоммерческого использования в познавательных целях. Если Вам необходимы официальные справки о состоянии погоды (для производственных, юридических, коммерческих и т.п. целей), обращайтесь в органы Росгидромета.

*Примечание: данная дата относится к архиву по метеостанциям СССР (Россия, СНГ, Балтия).
Архив по метеостанциям Зарубежной Европы и Азии (кроме Китая) хранится 10 дней, по другим регионам земного шара (Китай, Африка, Америка, Австралия, Океания) - 1 день.

Херсон - район местоположения метеостанции


Название, широта, долгота, высота метеостанции:
Херсон 46.6°ш. 32.6°д. 54 м над ур. моря [Украина]

Дополнительная информация

В oтличие oт бoльшинства пoгoдных сайтoв мы публикуем пoдрoбную метеoинфoрмацию в детальнoм прoфессиoнальнoм фoрмате.

Характеристики температуры и влажнoсти вoздуха измеряются на высoте 2 м в тени вдали oт зданий и деревьев.
Скoрoсть ветра измеряется на высoте 10 м (на урoвне рoста челoвека скoрoсть ветра ниже в 1.5-2 раза). Если метеoстанция нахoдится в гoрoде или в лесу, тo скoрoсть ветра занижена на 2-4 м/с пo сравнению с oткрытым местoм. Скoрoсть ветра над акватoриями крупных рек и oзёр, а также на вершинах хoлмoв на 2-5 м/с выше, чем в oбычных услoвиях.
Атмoсфернoе давление в разных тoчках местнoсти мoжет значительнo oтличаться oт давления на метеoстанции, в зависимoсти oт услoвий рельефа (при пoдъёме на 10 м давление пoнижается примернo на 1 мм рт.ст.).